NOAA 12 DEB

基本信息
目录编号:
38547
目录名称:
NOAA 12 DEB
国际标识:
1991-032G
轨道中心:
EARTH
物体状态:
在轨
发射日期:
1991-05-14 UTC
轨道信息
数据来源: 国际轨道数据
星历时间: 2026-07-11T12:15:24+0800
半长轴: 7166.695km
偏心率: 0.0003662
轨道倾角: 98.524°
近地点辐角: 279.733°
升交点赤经: 177.349°
平近点角: 80.344°
近地点: 785.933km
远地点: 791.183km
周期: 100.632分钟
每日圈数: 14.309498
详细信息
发射场:
AFWTR
轨道高度:
LEO
数据来源:
AOE Integration Group
参考系:
TEME
时间系统:
UTC
历元类型:
SGP4
2D轨道图
3D轨道图
轨道高度分析图
轨道倾角分析图
轨道综合分析图
查看轨道综合分析图